Location: Unspecified
(43.4680°N, 87.1740°E)
Time: 20:16:20
(UTC+00:00)

Okean 1 Rocket - Pass Details

Date: 17 April 2021
Orbit: 607 x 634 km, 82.5° (Epoch: 11 May)

Event Time Altitude Azimuth Distance (km) Brightness Sun altitude
Rises 22:13:12 0° 355° (N) 2,939 6.9 -12.8°
Reaches altitude 10° 22:15:29 10° 359° (N) 2,025 6.1 -12.4°
Maximum altitude 22:19:55 58° 79° (E) 735 3.8 -11.7°
Drops below altitude 10° 22:24:17 10° 159° (SSE) 1,996 5.6 -11.0°
Sets 22:26:32 0° 163° (SSE) 2,894 6.4 -10.6°
